Preview of NWS' New Version of Forecast
This preview is not operational and should not be used for support decisions.

Regional Weather Roundup (RWR)

Issued by Gray - Portland, ME (GYX)

                            
000
ASUS41 KGYX 171405
RWRGYX
WEATHER ROUNDUP FOR MAINE AND NEW HAMPSHIRE
NATIONAL WEATHER SERVICE GRAY ME
1000 AM EDT SAT AUG 17 2019

MEZ002-005-006-010-012-015-018-020-021-024-026-027-029-171500-
MAINE
  
CITY           SKY/WX    TMP DP  RH WIND       PRES   REMARKS
PORTLAND       CLOUDY    69  62  78 SE8       30.09R                  
SANFORD        CLOUDY    67  65  93 SE5       30.09R                  
BAR HARBOR     CLOUDY    63  62  97 SE5       30.13R FOG              
WISCASSET      CLOUDY    68  61  78 VRB7      30.11S                  
ROCKLAND       CLOUDY    62  62 100 S3        30.12S FOG              
FRYEBURG       CLOUDY    68  63  84 S3        30.09R                  
LEWISTONAUBURN CLOUDY    68  63  84 S9        30.10R                  
AUGUSTA        CLOUDY    66  63  90 VRB6      30.11R                  
WATERVILLE     CLOUDY    65  62  90 S3        30.09R                  
BANGOR         CLOUDY    63  61  93 S5        30.12R                  
GREENVILLE       N/A     59  59 100 S8        30.09R                  
MILLINOCKET    LGT RAIN  61  59  93 CALM      30.12R                  
HOULTON        LGT RAIN  62  58  86 S7        30.09S                  
PRESQUE ISLE   LGT RAIN  63  60  90 SE3       30.10R                  
FRENCHVILLE    CLOUDY    60  59  96 E6        30.08R                  
CARIBOU        FAIR      65  58  78 S8        30.08R                  
$$

NHZ002-005-008-009-011-012-014-171500-
NEW HAMPSHIRE
  
CITY           SKY/WX    TMP DP  RH WIND       PRES   REMARKS
PORTSMOUTH     CLOUDY    68  65  93 SE7       30.07R                  
ROCHESTER      CLOUDY    68  65  90 S6        30.08R                  
NASHUA         CLOUDY    73  69  87 SE7       30.07S                  
MANCHESTER     CLOUDY    72  66  81 S6        30.05S                  
CONCORD        CLOUDY    68  65  90 SE6       30.07R                  
LACONIA        LGT RAIN  66  65  96 CALM      30.09R FOG              
PLYMOUTH       CLOUDY    67  63  89 E3        30.07S                  
BERLIN         CLOUDY    69  62  78 CALM      30.07R                  
WHITEFIELD     CLOUDY    71  64  78 CALM      30.06S                  
JAFFREY        CLOUDY    70  64  81 SW6       30.09S                  
KEENE          CLOUDY    72  66  81 S7        30.07R                  
LEBANON        CLOUDY    73  66  78 N3        30.04S                  
MT WASHINGTON  FOG       52  52 100 SW21G32     N/A  VSB 0            
$$

VTZ005-007-008-171500-
VERMONT
  
CITY           SKY/WX    TMP DP  RH WIND       PRES   REMARKS
ST JOHNSBURY     N/A     68  64  87 MISG      30.03S                  
MONTPELIER     CLOUDY    71  67  87 S9        30.07S                  
BURLINGTON     PTSUNNY   76  66  71 S12       29.99S                  
$$

MAZ007-012-024-CTZ003-RIZ002-NYZ038-NYZ072-171500-
SOUTHERN NEW ENGLAND AND NY
  
CITY           SKY/WX    TMP DP  RH WIND       PRES   REMARKS
BOSTON         CLOUDY    70  65  84 E7        30.07S FOG              
WORCESTER      CLOUDY    69  66  90 S5        30.10R                  
NANTUCKET      FOG       67  66  97 E12       30.08R VSB 3/4          
PROVIDENCE     CLOUDY    73  69  87 S7        30.07R                  
HARTFORD       CLOUDY    72  67  84 CALM      30.05S                  
ALBANY         CLOUDY    76  68  76 S10       30.02S                  
NEW YORK CITY  CLOUDY    75  71  87 NE8       30.03R                  
$$

ANZ081-ANZ082-ANZ150-NHZ014-MEZ023>029-171500-
COASTAL MARINE OBSERVATIONS
  
STATION/POSITION TIME  TEMP    WIND        PRES    WAVE
                       AIR SEA DIR/SP/G            HT/PER
                 (UTC) (F)     (DEG/KT/KT) (MB)    (FT/S)
MATINICUS ROCK   1350   60                 1019.7R
ISLE OF SHOALS   1300   64     140/ 13/ 13 1017.8F
JEFFREYS LEDGE   1338      66                N/A     2/ 8
CASHES LEDGE BUO 1350   64 64  130/ 10/ 10 1019.7S   3/ 7
GEORGES BANK BUO 1350   69 70   60/  6/  6 1019.8R   4/ 7
$$

.............KEY..............
   WCI - WIND CHILL
   TC  - TEMPERATURE IN CELSIUS
   VSB - VISIBILITY IN MILES
   HX  - HEAT INDEX
   FAIR- INDICATES FEW OR NO CLOUDS BELOW 12,000 FT, WITH NO 
         SIGNIFICANT WEATHER AND/OR OBSTRUCTIONS TO VISIBILITY.